Flag for Germany Weather past 2 weeks in Rostock, Mecklenburg-Western Pomerania, Germany

Now
60 °F

Overcast.


Feels Like: 60 °F
Forecast: 56 / 65 °F
Wind: 7 mph from Southwest

Location: Rostock-Warnemuende

Current Time: Jul 28, 2015 at 8:40:21 AM

Latest Report: Jul 28, 2015 at 8:00 AM


Visibility: 16 mi

Pressure: 29.44 "Hg

Humidity: 86%

Dew point: 56 °F

Location of RostockLocation

Historic Weather in Rostock — Graph

°F

Rostock temperature yesterday

Maximum temperature yesterday: 66 °F (at 5:00 PM)
Minimum temperature yesterday: 57 °F (at 4:00 AM)
Average temperature yesterday: 61 °F

Past Weeks' High & Low Weather Summary

 TemperatureHumidityPressure
High80 °F (Jul 25, 5:00 PM)96% (Jul 27, 11:00 PM)30.11 "Hg (Jul 27, 11:00 PM)
Low54 °F (Jul 17, 5:00 AM)37% (Jul 25, 5:00 PM)29.41 "Hg (Jul 25, 4:00 PM)
Average64 °F73%29.86 "Hg
* Reported Jul 13 7:00 AM — Jul 28 7:00 AM, Rostock, Weather by CustomWeather, © 2015

Note: Actual official high and low records may vary slightly from our data, if they occured in-between our weather recording intervals... More about our weather records

Advertising

Rostock weather history for previous 24 hours

 ConditionsComfort  
Time TempWeatherWind HumidityBarometerVisibility
7:00 AM
Tue, Jul 28
60 °FOvercast.6 mph89%29.44 "Hg12 mi
6:00 AM60 °FOvercast.6 mph91%29.44 "Hg12 mi
5:00 AM60 °FDrizzle. Overcast.5 mph92%29.44 "Hg6 mi
4:00 AM60 °FOvercast.5 mph93%29.44 "Hg16 mi
3:00 AM60 °FOvercast.5 mph93%29.47 "Hg16 mi
2:00 AM60 °FOvercast.5 mph92%29.47 "Hg16 mi
1:00 AM60 °FOvercast.5 mph94%29.47 "Hg16 mi
11:00 PM
Mon, Jul 27
60 °FSprinkles. Overcast.3 mph96%29.47 "Hg12 mi
10:00 PM60 °FSprinkles. Overcast.3 mph95%29.47 "Hg19 mi
9:00 PM60 °FOvercast.3 mph91%29.47 "Hg19 mi
8:00 PM62 °FSprinkles. Overcast.6 mph88%29.47 "Hg12 mi
7:00 PM64 °FPartly sunny.5 mph80%29.47 "Hg22 mi
6:00 PM66 °FOvercast.3 mph68%29.47 "Hg31 mi
5:00 PM66 °FOvercast.3 mph66%29.47 "Hg34 mi
4:00 PM65 °FPartly sunny.3 mph69%29.50 "Hg31 mi
3:00 PM65 °FOvercast.3 mph65%29.50 "Hg31 mi
2:00 PM65 °FOvercast.6 mph61%29.50 "Hg22 mi
1:00 PM64 °FOvercast.6 mph62%29.53 "Hg28 mi
12:00 PM61 °FOvercast.7 mph68%29.55 "Hg22 mi
11:00 AM60 °FOvercast.6 mph71%29.57 "Hg22 mi
10:00 AM59 °FOvercast.3 mph74%29.58 "Hg28 mi
9:00 AM58 °FLight rain. Overcast.2 mph75%29.59 "Hg28 mi
8:00 AM58 °FOvercast.5 mph72%29.60 "Hg28 mi
Weather by CustomWeather, © 2015

See weather overviewHow to use our weather pages